Regional Weather Roundup
Issued by NWS

Home | Current Version | Previous Version | Graphics & Text | Print | Product List | Glossary On
Versions: 1 2 3 4 5 6 7 8 9 10 11 12 13 14 15 16 17 18 19 20 21 22 23 24 25 26 27 28 29 30 31 32 33 34 35 36 37 38 39 40 41 42 43 44 45 46 47 48 49 50
000
ASUS45 KCYS 241710
RWRWY

WYOMING REGIONAL WEATHER ROUNDUP
NATIONAL WEATHER SERVICE CHEYENNE WY
1100 AM MDT TUE MAY 24 2016

NOTE:  "FAIR" INDICATES FEW OR NO CLOUDS BELOW 12,000 FEET
WITH NO SIGNIFICANT WEATHER AND/OR OBSTRUCTIONS TO VISIBILITY.

WYZ001-241800-
YELLOWSTONE NATIONAL PARK

CITY           SKY/WX    TMP DP  RH WIND       PRES   REMARKS
LK YELLOWSTONE   N/A     42  30  62 VRB3      29.96S
W YELLOWSTONE  NOT AVBL

$$
WYZ002>013-054>058-071-098>099-241800-
NORTHERN WYOMING

CITY           SKY/WX    TMP DP  RH WIND       PRES   REMARKS
JACKSON        MOSUNNY   48  30  49 CALM      29.93F
CODY           FAIR      54  37  54 NE5       29.90S
GREYBULL       FAIR      59  33  37 SE5       29.87F
WORLAND        FAIR      59  37  44 NE5       29.87F
SHERIDAN       FAIR      59  38  45 CALM      29.90F
BUFFALO          N/A    N/A N/A N/A MISG      29.92S
GILLETTE       FAIR      62  36  37 NE6       29.91F
HULETT         FAIR      64  37  36 NE8       29.92S
NEWCASTLE      FAIR      61  30  31 S13       29.94S

$$
WYZ014>020-022>026-101>103-241800-
CENTRAL WYOMING

CITY           SKY/WX    TMP DP  RH WIND       PRES   REMARKS
BIG PINEY      PTSUNNY   49  30  48 S7        29.96F
PINEDALE       PTSUNNY   48  32  53 SE5       29.97S
DUBOIS         PTSUNNY   50  23  34 CALM      29.92F
LANDER         FAIR      57  32  38 NE7       29.88F
RIVERTON       FAIR      59  32  36 SE3       29.89F
CASPER         FAIR      59  37  44 E7        29.91F
DOUGLAS        FAIR      65  37  35 SE16      29.92F

$$
WYZ021-027>030-104>119-241800-
SOUTHERN WYOMING

CITY           SKY/WX    TMP DP  RH WIND       PRES   REMARKS
EVANSTON       FAIR      52  33  48 VRB5      29.93S
KEMMERER         N/A     55  30  38 SE8       29.94F
FORT BRIDGER   FAIR      55  32  41 NE7       29.95F THUNDER
ROCK SPRINGS   FAIR      57  27  31 E10       29.92F
DIXON          FAIR      65  27  24 SW12G22   29.95S
RAWLINS        FAIR      54  31  41 E9        29.94F
SARATOGA       FAIR      61  32  33 N3        29.94F
LARAMIE        FAIR      59  39  47 SE26G33   29.95F
CHEYENNE       FAIR      59  43  55 S22G30    29.98F
TORRINGTON     CLOUDY    62  45  53 SE8       29.92F
PINE BLUFFS    PTSUNNY   64  43  45 S13G20    29.98S

$$



USA.gov is the U.S. government's official web portal to all federal, state and local government web resources and services.